Bergamo, Italy

3:48 PM CEST on August 27, 2016 (GMT +0200)
Orio Al Serio

Weather History for LIME - March, 2013

Change the Weather History Date:

Monday, March 11, 2013

  Actual Average Record
Temperature  
Mean Temperature 48 °F -  
Max Temperature 57 °F 57 °F 64 °F (2003)
Min Temperature 39 °F 40 °F 30 °F (1998)
Degree Days  
Heating Degree Days 17    
Moisture  
Dew Point 43 °F    
Average Humidity 85    
Maximum Humidity 100    
Minimum Humidity 63    
Precipitation  
Precipitation 0.00 in 0.11 in - ()
Sea Level Pressure  
Sea Level Pressure 29.49 in    
Wind  
Wind Speed 4 mph ()    
Max Wind Speed 9 mph    
Max Gust Speed -    
Visibility 4.7 miles    
Events      
Averages and records for this station are not official NWS values.
T = Trace of Precipitation, MM = Missing Value Source: Averaged Metar Reports

Daily Weather History Graph

Daily Weather History Graph

Search for Another Location

Airport or City:

Trip Planner

Search our weather history database for the weather conditions in past years. The results will help you decide how hot, cold, wet, or windy it might be!

Date:

Astronomy

Mar. 11, 2013 Rise Set
Actual Time 6:41 AM CET 6:21 PM CET
Civil Twilight 6:11 AM CET 6:51 PM CET
Nautical Twilight 5:37 AM CET 7:25 PM CET
Astronomical Twilight 5:02 AM CET 8:00 PM CET
Moon 6:05 AM CET (3/11) 6:18 PM CET (3/11)
Length of Visible Light 12h 39m
Length of Day
11h 40m
Waning Crescent, 0% of the Moon is Illuminated
Mar 11
Waning Crescent
Mar 11
New
Mar 19
First Quarter
Mar 27
Full
Apr 3
Last Quarter

Hourly Weather History & Observations

Time (CET) Temp. Windchill Dew Point Humidity Pressure Visibility Wind Dir Wind Speed Gust Speed Precip Events Conditions
12:20 AM 42.8 °F 41.1 °F 41.0 °F 93% 29.50 in - NNE 3.5 mph - N/A   Clear
12:50 AM 42.8 °F 39.3 °F 41.0 °F 93% 29.50 in - NNE 5.8 mph - N/A   Clear
1:20 AM 44.6 °F 40.7 °F 41.0 °F 87% 29.50 in 6.2 mi North 6.9 mph - N/A   Scattered Clouds
1:50 AM 44.6 °F 41.4 °F 41.0 °F 87% 29.50 in 6.2 mi North 5.8 mph - N/A   Scattered Clouds
2:20 AM 42.8 °F 38.6 °F 39.2 °F 87% 29.50 in 6.2 mi North 6.9 mph - N/A   Scattered Clouds
2:50 AM 42.8 °F - 41.0 °F 93% 29.50 in 6.2 mi Variable 2.3 mph - N/A   Scattered Clouds
3:20 AM 42.8 °F 39.3 °F 39.2 °F 87% 29.50 in 6.2 mi North 5.8 mph - N/A   Scattered Clouds
3:50 AM 42.8 °F 39.3 °F 39.2 °F 87% 29.50 in 6.2 mi North 5.8 mph - N/A   Scattered Clouds
4:20 AM 41.0 °F 38.0 °F 39.2 °F 93% 29.47 in 6.2 mi NE 4.6 mph - N/A   Scattered Clouds
4:50 AM 42.8 °F 39.3 °F 39.2 °F 87% 29.47 in 6.2 mi NNE 5.8 mph - N/A   Scattered Clouds
5:20 AM 42.8 °F - 41.0 °F 93% 29.47 in 6.2 mi Variable 2.3 mph - N/A   Scattered Clouds
5:50 AM 42.8 °F - 39.2 °F 87% 29.50 in 6.2 mi North 2.3 mph - N/A   Scattered Clouds
6:20 AM 41.0 °F 38.0 °F 37.4 °F 87% 29.47 in 6.2 mi NE 4.6 mph - N/A   Scattered Clouds
6:50 AM 41.0 °F 38.0 °F 39.2 °F 93% 29.50 in 6.2 mi North 4.6 mph - N/A   Scattered Clouds
7:20 AM 39.2 °F - 37.4 °F 93% 29.50 in 6.2 mi North 2.3 mph - N/A   Scattered Clouds
7:50 AM 42.8 °F 41.1 °F 41.0 °F 93% 29.50 in 6.2 mi NNE 3.5 mph - N/A   Mostly Cloudy
8:20 AM 46.4 °F - 42.8 °F 87% 29.50 in 5.0 mi Variable 1.2 mph - N/A   Mostly Cloudy
8:50 AM 46.4 °F 45.2 °F 44.6 °F 93% 29.50 in 2.5 mi ENE 3.5 mph - N/A   Mostly Cloudy
9:20 AM 48.2 °F - 44.6 °F 87% 29.50 in 2.5 mi NE 4.6 mph - N/A   Mostly Cloudy
9:50 AM 48.2 °F - 44.6 °F 87% 29.50 in 3.1 mi South 3.5 mph - N/A   Mostly Cloudy
10:20 AM 50.0 °F - 44.6 °F 82% 29.50 in 3.1 mi Variable 2.3 mph - N/A   Mostly Cloudy
10:50 AM 53.6 °F - 44.6 °F 72% 29.50 in 4.3 mi Variable 2.3 mph - N/A   Scattered Clouds
11:20 AM 53.6 °F - 46.4 °F 77% 29.50 in 4.3 mi SSW 4.6 mph - N/A   Scattered Clouds
11:50 AM 53.6 °F - 46.4 °F 77% 29.50 in 4.3 mi South 8.1 mph - N/A   Scattered Clouds
12:20 PM 53.6 °F - 48.2 °F 82% 29.50 in 4.3 mi SSW 6.9 mph - N/A   Scattered Clouds
12:50 PM 53.6 °F - 46.4 °F 77% 29.50 in 4.3 mi SW 6.9 mph - N/A   Scattered Clouds
1:20 PM 53.6 °F - 46.4 °F 77% 29.50 in 4.3 mi SSW 5.8 mph - N/A   Scattered Clouds
1:50 PM 57.2 °F - 44.6 °F 63% 29.47 in 4.3 mi WSW 4.6 mph - N/A   Partly Cloudy
2:20 PM 55.4 °F - 44.6 °F 67% 29.47 in 5.0 mi Variable 4.6 mph - N/A   Scattered Clouds
2:50 PM 57.2 °F - 44.6 °F 63% 29.47 in 5.0 mi South 5.8 mph - N/A   Scattered Clouds
3:20 PM 57.2 °F - 44.6 °F 63% 29.47 in 5.0 mi SSE 5.8 mph - N/A   Scattered Clouds
4:20 PM 55.4 °F - 46.4 °F 72% 29.47 in 5.0 mi South 6.9 mph - N/A   Scattered Clouds
4:50 PM 55.4 °F - 46.4 °F 72% 29.47 in 5.0 mi SSE 9.2 mph - N/A   Scattered Clouds
5:20 PM 53.6 °F - 46.4 °F 77% 29.47 in 5.0 mi South 8.1 mph - N/A   Scattered Clouds
5:50 PM 53.6 °F - 46.4 °F 77% 29.47 in 4.3 mi South 6.9 mph - N/A   Scattered Clouds
6:20 PM 51.8 °F - 46.4 °F 82% 29.47 in 3.7 mi SE 9.2 mph - N/A   Mostly Cloudy
6:50 PM 50.0 °F - 46.4 °F 87% 29.50 in 3.7 mi ESE 6.9 mph - N/A   Mostly Cloudy
7:20 PM 50.0 °F - 46.4 °F 87% 29.50 in 3.7 mi SE 6.9 mph - N/A   Scattered Clouds
7:50 PM 48.2 °F - 46.4 °F 93% 29.50 in 3.1 mi Variable 2.3 mph - N/A   Scattered Clouds
8:20 PM 48.2 °F - 46.4 °F 93% 29.50 in 3.1 mi Variable 1.2 mph - N/A   Scattered Clouds
8:50 PM 46.4 °F - 46.4 °F 100% 29.50 in 3.1 mi Variable 1.2 mph - N/A   Scattered Clouds
9:20 PM 46.4 °F - 44.6 °F 93% 29.50 in 3.1 mi North 2.3 mph - N/A   Scattered Clouds
9:50 PM 46.4 °F 45.2 °F 44.6 °F 93% 29.53 in 3.1 mi NNE 3.5 mph - N/A   Scattered Clouds
10:20 PM 46.4 °F - 42.8 °F 87% 29.53 in 4.3 mi NNE 2.3 mph - N/A   Mostly Cloudy
10:50 PM 44.6 °F 43.1 °F 42.8 °F 93% 29.53 in 4.3 mi North 3.5 mph - N/A   Mostly Cloudy
11:20 PM 44.6 °F 42.2 °F 42.8 °F 93% 29.50 in 4.3 mi North 4.6 mph - N/A   Scattered Clouds
11:50 PM 46.4 °F 45.2 °F 42.8 °F 87% 29.53 in 6.2 mi North 3.5 mph - N/A   Scattered Clouds